Home   Weather   Fairfield   Past weeks
Flag for USA

Past Weather in Fairfield, Virginia, USA — Yesterday and Last 2 Weeks

Now
20 °F

Clear.


Feels Like: 20 °F
Forecast: 39 / 23 °F
Wind: No wind

Location: Hot Springs / Ingalls

Current Time: Dec 12, 2019 at 3:20:43 am

Latest Report: Dec 12, 2019 at 2:55 am


Visibility: 10 mi

Pressure: 30.43 "Hg

Humidity: 91%

Dew Point: 18 °F

Location of FairfieldLocation

Past Weather in Fairfield — Graph

°F

Fairfield Temperature Yesterday

Maximum temperature yesterday: 27 °F (at 3:55 pm)
Minimum temperature yesterday: 17 °F (at 6:55 am)
Average temperature yesterday: 21 °F

High & Low Weather Summary for the Past Weeks

 TemperatureHumidityPressure
High57 °F (Nov 27, 3:15 pm)100% (Nov 27, 4:55 am)30.40 "Hg (Nov 27, 4:55 am)
Low17 °F (Dec 11, 6:55 am)34% (Nov 27, 4:35 pm)29.43 "Hg (Dec 1, 3:55 pm)
Average34 °F87%29.94 "Hg
* Reported Nov 27 1:15 am — Dec 12 1:55 am, Fairfield. Weather by CustomWeather, © 2019

Note: Actual official high and low records may vary slightly from our data, if they occured in-between our weather recording intervals... More about our weather records

Fairfield Weather History for the Previous 24 Hours

Scroll right to see more
 ConditionsComfort  
Time TempWeatherWind HumidityBarometerVisibility
1:55 am
Thu, Dec 12
20 °FClear.No wind93%30.40 "Hg10 mi
12:55 am21 °FClear.10 mph90%30.38 "Hg10 mi
12:35 am21 °FClear.10 mph92%30.38 "Hg10 mi
12:15 am21 °FClear.10 mph93%30.38 "Hg10 mi
11:55 pm
Wed, Dec 11
21 °FClear.13 mph92%30.38 "Hg10 mi
11:35 pm21 °FClear.9 mph92%30.38 "Hg10 mi
11:15 pm21 °FClear.5 mph90%30.38 "Hg10 mi
10:55 pm22 °FClear.17 mph89%30.37 "Hg10 mi
10:35 pm22 °FClear.18 mph89%30.37 "Hg10 mi
9:35 pm22 °FClear.18 mph89%30.35 "Hg10 mi
9:15 pm22 °FClear.17 mph87%30.34 "Hg10 mi
8:55 pm22 °FClear.17 mph85%30.33 "Hg10 mi
8:35 pm22 °FClear.17 mph86%30.33 "Hg10 mi
8:15 pm23 °FClear.21 mph85%30.31 "Hg10 mi
7:55 pm22 °FClear.17 mph86%30.31 "Hg10 mi
7:15 pm23 °FClear.22 mph84%30.30 "Hg10 mi
6:55 pm23 °FClear.22 mph81%30.30 "Hg10 mi
6:35 pm23 °FClear.22 mph80%30.30 "Hg10 mi
6:15 pm24 °FClear.20 mph78%30.29 "Hg10 mi
5:55 pm24 °FClear.21 mph77%30.29 "Hg10 mi
5:35 pm24 °FClear.21 mph76%30.29 "Hg10 mi
5:15 pm24 °FClear.18 mph75%30.29 "Hg10 mi
4:55 pm25 °FSunny.16 mph71%30.29 "Hg10 mi
4:35 pm26 °FSunny.17 mph69%30.29 "Hg10 mi
4:15 pm26 °FSunny.16 mph66%30.29 "Hg10 mi
3:55 pm27 °FSunny.13 mph66%30.29 "Hg10 mi
3:35 pm26 °FSunny.12 mph67%30.28 "Hg10 mi
3:15 pm26 °FSunny.12 mph67%30.27 "Hg10 mi
2:55 pm26 °FSunny.12 mph68%30.26 "Hg10 mi
2:35 pm26 °FSunny.13 mph69%30.25 "Hg10 mi
2:15 pm25 °FSunny.16 mph70%30.25 "Hg10 mi
1:55 pm24 °FSunny.15 mph73%30.24 "Hg10 mi
1:35 pm24 °FSunny.15 mph75%30.24 "Hg10 mi
12:55 pm23 °FSunny.10 mph77%30.23 "Hg10 mi
12:35 pm22 °FSunny.12 mph78%30.23 "Hg10 mi
12:15 pm22 °FSunny.15 mph77%30.23 "Hg10 mi
11:55 am21 °FSunny.16 mph81%30.23 "Hg10 mi
11:35 am21 °FSunny.13 mph79%30.25 "Hg10 mi
11:15 am20 °FSunny.12 mph83%30.27 "Hg10 mi
10:55 am20 °FScattered clouds.14 mph85%30.26 "Hg10 mi
10:35 am19 °FScattered clouds.16 mph85%30.24 "Hg10 mi
9:55 am18 °FSunny.21 mph89%30.22 "Hg10 mi
9:35 am18 °FSunny.18 mph98%30.20 "Hg10 mi
8:55 am17 °FScattered clouds.16 mph99%30.19 "Hg10 mi
8:35 am17 °FPartly sunny.17 mph100%30.19 "Hg10 mi
8:15 am17 °FPartly sunny.17 mph100%30.19 "Hg10 mi
7:55 am17 °FPartly sunny.17 mph100%30.18 "Hg10 mi
7:35 am17 °FOvercast.17 mph100%30.18 "Hg10 mi
7:15 am17 °FPassing clouds.17 mph100%30.18 "Hg10 mi
6:55 am17 °FPassing clouds.16 mph100%30.16 "Hg10 mi
6:35 am17 °FPassing clouds.16 mph100%30.16 "Hg10 mi
6:15 am18 °FClear.17 mph99%30.14 "Hg10 mi
5:55 am18 °FClear.17 mph100%30.13 "Hg10 mi
5:35 am18 °FPassing clouds.20 mph100%30.12 "Hg10 mi
5:15 am18 °FMostly cloudy.18 mph100%30.11 "Hg10 mi
4:35 am19 °FOvercast.15 mph100%30.12 "Hg10 mi
3:55 am19 °FMostly cloudy.14 mph100%30.09 "Hg10 mi
3:35 am19 °FMostly cloudy.13 mph100%30.09 "Hg10 mi
3:15 am20 °FLow clouds.16 mph100%30.09 "Hg10 mi
Weather by CustomWeather, © 2019

See weather overview

Advertising